Weather History for KOSA - October, 2012

Change the Weather History Date:

Tuesday, October 16, 2012

  Actual Average (KGGG) Record (KGGG)
Temperature  
Mean Temperature 60 °F 66 °F  
Max Temperature 69 °F 78 °F 94 °F (1938)
Min Temperature 50 °F 54 °F 36 °F (1952)
Degree Days  
Heating Degree Days 6 2  
Month to date heating degree days 23  
Since 1 July heating degree days 29  
Cooling Degree Days 0 3  
Month to date cooling degree days 75  
Year to date cooling degree days 2354  
Growing Degree Days 10 (Base 50)    
Moisture  
Dew Point 55 °F    
Average Humidity 85    
Maximum Humidity 100    
Minimum Humidity 60    
Precipitation  
Precipitation 0.03 in 0.15 in 2.70 in (1919)
Month to date precipitation 2.40  
Year to date precipitation 36.39  
Snow  
Snow 0.00 in - - ()
Month to date snowfall  
Since 1 July snowfall  
Since 1 September snowfall  
Snow Depth -    
Sea Level Pressure  
Sea Level Pressure 29.88 in    
Wind  
Wind Speed 3 mph (SE)    
Max Wind Speed 13 mph    
Max Gust Speed -    
Visibility 10 miles    
Events      
T = Trace of Precipitation, MM = Missing Value Source: NWS Daily Summary

Daily Weather History Graph

Daily Weather History Graph

Search for Another Location

Airport or City:

Trip Planner

Search our weather history database for the weather conditions in past years. The results will help you decide how hot, cold, wet, or windy it might be!

Date:

Astronomy

Oct. 16, 2012 Rise Set
Actual Time 7:25 AM CDT 6:44 PM CDT
Civil Twilight 7:00 AM CDT 7:09 PM CDT
Nautical Twilight 6:31 AM CDT 7:38 PM CDT
Astronomical Twilight 6:02 AM CDT 8:07 PM CDT
Moon 8:42 AM CDT (10/16) 7:37 PM CDT (10/16)
Length of Visible Light 12h 09m
Length of Day
11h 19m
New Moon, 2% of the Moon is Illuminated
Oct 16
New Moon
Oct 21
First Quarter
Oct 29
Full
Nov 6
Last Quarter
Nov 13
New

Hourly Weather History & Observations

Time (CDT) Temp. Dew Point Humidity Pressure Visibility Wind Dir Wind Speed Gust Speed Precip Events Conditions
12:15 AM 53.6 °F 53.6 °F 100% 30.02 in 10.0 mi Calm Calm - N/A   Clear
12:35 AM 55.4 °F 53.6 °F 94% 30.02 in 10.0 mi Calm Calm - N/A   Clear
12:55 AM 53.6 °F 53.6 °F 100% 30.02 in 7.0 mi Calm Calm - N/A   Clear
1:15 AM 53.6 °F 53.6 °F 100% 30.00 in 10.0 mi Calm Calm - N/A   Clear
1:35 AM 53.6 °F 53.6 °F 100% 29.99 in 10.0 mi Calm Calm - N/A   Clear
1:55 AM 51.8 °F 51.8 °F 100% 29.99 in 10.0 mi Calm Calm - N/A   Clear
2:15 AM 53.6 °F 53.6 °F 100% 29.99 in 10.0 mi Calm Calm - N/A   Clear
2:35 AM 53.6 °F 51.8 °F 94% 29.98 in 10.0 mi Calm Calm - N/A   Clear
2:55 AM 50.0 °F 50.0 °F 100% 29.96 in 10.0 mi Calm Calm - N/A   Clear
3:15 AM 51.8 °F 51.8 °F 100% 29.96 in 10.0 mi Calm Calm - N/A   Clear
3:35 AM 51.8 °F 50.0 °F 94% 29.95 in 10.0 mi Calm Calm - N/A   Clear
3:55 AM 51.8 °F 51.8 °F 100% 29.95 in 10.0 mi Calm Calm - N/A   Clear
4:15 AM 51.8 °F 51.8 °F 100% 29.95 in 10.0 mi Calm Calm - N/A   Clear
4:35 AM 51.8 °F 51.8 °F 100% 29.95 in 10.0 mi Calm Calm - N/A   Clear
5:15 AM 50.0 °F 50.0 °F 100% 29.95 in 10.0 mi Calm Calm - N/A   Clear
5:35 AM 51.8 °F 51.8 °F 100% 29.96 in 10.0 mi Calm Calm - N/A   Clear
6:15 AM 50.0 °F 50.0 °F 100% 29.95 in 10.0 mi Calm Calm - N/A   Clear
6:35 AM 51.8 °F 50.0 °F 94% 29.95 in 10.0 mi Calm Calm - N/A   Clear
6:55 AM 51.8 °F 50.0 °F 94% 29.95 in 10.0 mi Calm Calm - N/A   Clear
7:15 AM 51.8 °F 50.0 °F 94% 29.95 in 10.0 mi ESE 3.5 mph - N/A   Clear
7:35 AM 51.8 °F 50.0 °F 94% 29.95 in 10.0 mi SE 3.5 mph - N/A   Clear
7:55 AM 51.8 °F 50.0 °F 94% 29.94 in 10.0 mi ESE 3.5 mph - N/A   Clear
8:35 AM 51.8 °F 51.8 °F 100% 29.95 in 10.0 mi Calm Calm - N/A   Clear
8:55 AM 53.6 °F 51.8 °F 94% 29.95 in 10.0 mi East 3.5 mph - N/A   Clear
9:15 AM 53.6 °F 53.6 °F 100% 29.95 in 10.0 mi ESE 3.5 mph - N/A   Clear
9:35 AM 55.4 °F 53.6 °F 94% 29.95 in 10.0 mi Calm Calm - N/A   Clear
9:55 AM 55.4 °F 53.6 °F 94% 29.95 in 10.0 mi SE 3.5 mph - N/A   Clear
10:15 AM 57.2 °F 55.4 °F 94% 29.95 in 10.0 mi SE 3.5 mph - N/A   Clear
11:15 AM 62.6 °F 57.2 °F 82% 29.94 in 10.0 mi SSE 6.9 mph - N/A   Clear
11:35 AM 62.6 °F 57.2 °F 82% 29.94 in 10.0 mi SSE 5.8 mph - N/A   Clear
11:55 AM 64.4 °F 57.2 °F 77% 29.95 in 10.0 mi Calm Calm - N/A   Clear
12:15 PM 64.4 °F 57.2 °F 77% 29.94 in 10.0 mi SE 5.8 mph - N/A   Clear
12:35 PM 64.4 °F 57.2 °F 77% 29.93 in 10.0 mi SSE 4.6 mph - N/A   Clear
12:55 PM 66.2 °F 57.2 °F 73% 29.92 in 10.0 mi SE 3.5 mph - N/A   Clear
1:15 PM 66.2 °F 57.2 °F 73% 29.91 in 10.0 mi ESE 4.6 mph - N/A   Clear
1:35 PM 66.2 °F 59.0 °F 78% 29.90 in 10.0 mi SE 5.8 mph - N/A   Clear
1:55 PM 68.0 °F 57.2 °F 68% 29.89 in 10.0 mi ESE 4.6 mph - N/A   Clear
2:15 PM 68.0 °F 59.0 °F 73% 29.85 in 10.0 mi SE 12.7 mph - N/A   Clear
2:35 PM 68.0 °F 57.2 °F 68% 29.85 in 10.0 mi SSE 10.4 mph - N/A   Clear
2:55 PM 69.8 °F 55.4 °F 60% 29.85 in 10.0 mi South 8.1 mph - N/A   Clear
3:15 PM - - N/A% - - North - - N/A   Unknown
3:35 PM 69.8 °F 55.4 °F 60% 29.84 in 10.0 mi SSE 9.2 mph - 0.03 in   Scattered Clouds
3:55 PM 69.8 °F 55.4 °F 60% 29.83 in 10.0 mi SSE 9.2 mph - 0.03 in   Scattered Clouds
4:15 PM 69.8 °F 55.4 °F 60% 29.83 in 10.0 mi SSE 9.2 mph - N/A   Scattered Clouds
4:35 PM 68.0 °F 55.4 °F 64% 29.82 in 10.0 mi SSE 9.2 mph - N/A   Scattered Clouds
4:55 PM 68.0 °F 55.4 °F 64% 29.81 in 10.0 mi SSE 8.1 mph - N/A   Mostly Cloudy
5:15 PM 68.0 °F 55.4 °F 64% 29.81 in 10.0 mi SSE 6.9 mph - N/A   Mostly Cloudy
5:35 PM 68.0 °F 55.4 °F 64% 29.80 in 10.0 mi SSE 9.2 mph - N/A   Mostly Cloudy
5:55 PM 68.0 °F 55.4 °F 64% 29.80 in 10.0 mi SE 9.2 mph - N/A   Mostly Cloudy
6:15 PM 66.2 °F 55.4 °F 68% 29.79 in 10.0 mi SSE 6.9 mph - N/A   Mostly Cloudy
6:35 PM 66.2 °F 57.2 °F 73% 29.78 in 10.0 mi SE 6.9 mph - N/A   Mostly Cloudy
6:55 PM 64.4 °F 57.2 °F 77% 29.79 in 10.0 mi SSE 5.8 mph - N/A   Scattered Clouds
7:15 PM 64.4 °F 57.2 °F 77% 29.78 in 10.0 mi SSE 6.9 mph - N/A   Scattered Clouds
7:35 PM 64.4 °F 57.2 °F 77% 29.78 in 10.0 mi SSE 8.1 mph - N/A   Scattered Clouds
7:55 PM 64.4 °F 57.2 °F 77% 29.77 in 10.0 mi SE 6.9 mph - N/A   Scattered Clouds
8:15 PM 62.6 °F 57.2 °F 82% 29.77 in 10.0 mi SE 6.9 mph - N/A   Clear
8:35 PM 62.6 °F 59.0 °F 88% 29.77 in 10.0 mi SE 9.2 mph - N/A   Clear
8:55 PM 62.6 °F 59.0 °F 88% 29.76 in 10.0 mi SSE 8.1 mph - N/A   Clear
9:15 PM 62.6 °F 59.0 °F 88% 29.75 in 10.0 mi SSE 11.5 mph - N/A   Clear
9:35 PM 62.6 °F 59.0 °F 88% 29.75 in 10.0 mi SSE 11.5 mph - N/A   Clear
9:55 PM 62.6 °F 59.0 °F 88% 29.77 in 10.0 mi SSE 9.2 mph - N/A   Clear
10:15 PM 62.6 °F 59.0 °F 88% 29.76 in 10.0 mi SSE 8.1 mph - N/A   Clear
10:35 PM 62.6 °F 59.0 °F 88% 29.76 in 10.0 mi SSE 8.1 mph - N/A   Clear
10:55 PM 60.8 °F 59.0 °F 94% 29.76 in 10.0 mi SSE 8.1 mph - N/A   Clear
11:15 PM 60.8 °F 59.0 °F 94% 29.75 in 10.0 mi SSE 6.9 mph - N/A   Clear
11:35 PM 60.8 °F 59.0 °F 94% 29.75 in 10.0 mi SSE 5.8 mph - N/A   Clear
11:55 PM 60.8 °F 59.0 °F 94% 29.75 in 10.0 mi SSE 4.6 mph - N/A   Clear